Regional Weather Roundup
Issued by NWS Sioux Falls, SD

Home | Current Version | Previous Version | Text Only | Print | Product List | Glossary Off
Versions: 1 2 3 4 5 6 7 8 9 10 11 12 13 14 15 16 17 18 19 20 21 22 23 24 25 26 27 28 29 30 31 32 33 34 35 36 37 38 39 40 41 42 43 44 45 46 47 48 49 50

000
ASUS43 KFSD 280302
RWRFSD

WEATHER ROUNDUP FOR SE SOUTH DAKOTA/SW MINNESOTA/NW IOWA
NATIONAL WEATHER SERVICE SIOUX FALLS SD
1000 PM CDT TUE SEP 27 2016

NOTE: "FAIR" INDICATES FEW OR NO CLOUDS BELOW 12,000 FEET WITH NO
SIGNIFICANT WEATHER AND OR OBSTRUCTIONS TO VISIBILITY.


SDZ038>040-050-052>070-280400-
SOUTHEAST SOUTH DAKOTA

CITY           SKY/WX    TMP DP  RH WIND       PRES   REMARKS
CHAMBERLAIN    CLEAR     65  44  45 N7        29.96R
HURON          CLEAR     56  40  55 N9        29.94R
MADISON        FAIR      48  39  71 N9        29.93R
MITCHELL       CLEAR     56  41  57 NW6       29.94R
SIOUX FALLS    PTCLDY    55  42  61 N8        29.91R
WINNER         FAIR      65  43  44 E6        29.97R
YANKTON        CLEAR     55  46  71 NW7       29.90R
$$

MNZ071-072-080-081-089-090-097-098-280400-
SOUTHWEST MINNESOTA

CITY           SKY/WX    TMP DP  RH WIND       PRES   REMARKS
FAIRMONT       CLOUDY    54  43  66 NE8       29.89R
JACKSON        CLOUDY    57  34  41 N10       29.89R
LUVERNE        CLEAR     55  32  41 N7        29.90S
MARSHALL       CLOUDY    55  42  61 NE9       29.92R
MONTEVIDEO     CLOUDY    54  45  71 NE7       29.94R
PIPESTONE      CLEAR     54  30  40 N6        29.91S
REDWOOD FALLS  CLOUDY    54  43  66 N5        29.91R
TRACY          CLOUDY    56  44  63 NE8       29.92R
WINDOM         MOCLDY    55  43  62 N12G17    29.90R
WORTHINGTON    CLOUDY    53  36  52 N8        29.90R
$$

IAZ001>003-012>014-020>022-031-032-NEZ013-014-SDZ071-280400-
NORTHWEST IOWA

CITY           SKY/WX    TMP DP  RH WIND       PRES   REMARKS
CHEROKEE       CLEAR     54  46  72 N6        29.87R
DENISON        CLEAR     54  48  82 CALM      29.84R
ESTHERVILLE    CLOUDY    56  39  53 N10       29.87R
LE MARS        CLEAR     55  46  71 CALM      29.89R
ORANGE CITY    CLEAR     61  45  55 N7        29.89R
SHELDON        CLEAR     50  45  81 N6        29.88R
SIOUX CITY     CLEAR     54  49  83 SW3       29.87R
SPENCER        CLOUDY    55  41  59 NW9       29.87R
STORM LAKE     CLEAR     57  43  58 N8        29.87R
$$

ABBREVIATIONS USED IN REMARKS
   TC - TEMPERATURE IN CELSIUS
  WCI - WIND CHILL INDEX
   HX - HEAT INDEX
  VSB - VISIBILITY




USA.gov is the U.S. government's official web portal to all federal, state and local government web resources and services.